Home   Weather   Khartoum   Past weeks
Flag for Sudan

Past Weather in Khartoum, Sudan — Yesterday and Last 2 Weeks

Now
77 °F

Sunny.


Feels Like: 77 °F
Forecast: 88 / 62 °F
Wind: 12 mph from North

Location: Khartoum Airport

Current Time: Jan 18, 2019 at 12:00:05 pm

Latest Report: Jan 18, 2019 at 11:00 am


Visibility: 10 mi

Pressure: 30.01 "Hg

Humidity: 26%

Dew Point: 39 °F

Location of KhartoumLocation

Past Weather in Khartoum — Graph

°F

Khartoum Temperature Yesterday

Maximum temperature yesterday: 84 °F (at 3:00 pm)
Minimum temperature yesterday: 59 °F (at 6:00 am)
Average temperature yesterday: 71 °F

High & Low Weather Summary for the Past Weeks

 TemperatureHumidityPressure
High97 °F (Jan 4, 3:00 pm)100% (Jan 8, 7:00 pm)30.09 "Hg (Jan 8, 7:00 pm)
Low59 °F (Jan 7, 6:30 am)9% (Jan 15, 2:30 pm)29.77 "Hg (Jan 12, 3:00 pm)
Average76 °F23%29.95 "Hg
* Reported Jan 3 11:00 am — Jan 18 11:00 am, Khartoum. Weather by CustomWeather, © 2019

Note: Actual official high and low records may vary slightly from our data, if they occured in-between our weather recording intervals... More about our weather records

Advertising

Khartoum Weather History for the Previous 24 Hours

Scroll right to see more
 ConditionsComfort  
Time TempWeatherWind HumidityBarometerVisibility
11:00 am
Fri, Jan 18
77 °FSunny.12 mph26%30.01 "Hg10 mi
10:30 am73 °FSunny.12 mph25%30.01 "Hg10 mi
10:00 am72 °FSunny.10 mph23%30.01 "Hg10 mi
9:30 am70 °FSunny.9 mph21%30.04 "Hg10 mi
9:00 am66 °FSunny.9 mph22%30.04 "Hg10 mi
8:30 am64 °FSunny.12 mph22%30.04 "Hg10 mi
7:30 am61 °FSunny.10 mph17%30.01 "Hg10 mi
7:00 am61 °FSunny.12 mph17%30.01 "Hg10 mi
6:30 am61 °FSunny.12 mph17%29.98 "Hg10 mi
6:00 am61 °FClear.15 mph17%29.98 "Hg10 mi
5:30 am63 °FClear.12 mph17%29.98 "Hg10 mi
5:00 am63 °FClear.14 mph17%29.98 "Hg10 mi
4:30 am63 °FClear.14 mph17%29.95 "Hg10 mi
4:00 am64 °FClear.12 mph22%29.95 "Hg10 mi
3:30 am64 °FClear.12 mph22%29.95 "Hg10 mi
3:00 am64 °FClear.10 mph22%29.95 "Hg10 mi
2:30 am66 °FClear.12 mph18%29.95 "Hg10 mi
2:00 am66 °FClear.12 mph18%29.95 "Hg10 mi
1:30 am66 °FClear.9 mph18%29.98 "Hg10 mi
1:00 am68 °FClear.13 mph20%29.98 "Hg10 mi
12:30 am66 °FClear.10 mph18%29.98 "Hg10 mi
12:00 am68 °FClear.12 mph20%29.98 "Hg10 mi
11:30 pm
Thu, Jan 17
70 °FClear.12 mph16%29.98 "Hg10 mi
11:00 pm72 °FClear.9 mph25%30.01 "Hg10 mi
10:30 pm72 °FClear.12 mph25%30.01 "Hg10 mi
10:00 pm73 °FClear.7 mph27%30.01 "Hg10 mi
9:30 pm73 °FClear.10 mph27%30.01 "Hg10 mi
9:00 pm73 °FClear.9 mph33%29.98 "Hg10 mi
8:30 pm73 °FClear.7 mph33%29.98 "Hg10 mi
8:00 pm77 °FClear.12 mph30%29.98 "Hg10 mi
7:30 pm77 °FClear.10 mph30%29.95 "Hg10 mi
7:00 pm79 °FClear.10 mph26%29.95 "Hg10 mi
6:30 pm79 °FClear.10 mph26%29.95 "Hg10 mi
6:00 pm81 °FPleasantly warm.12 mph21%29.95 "Hg4 mi
5:30 pm81 °FSandstorm.14 mph21%29.92 "Hg2 mi
5:00 pm82 °FSandstorm.13 mph19%29.92 "Hg2 mi
4:30 pm84 °FSandstorm.13 mph20%29.92 "Hg2 mi
4:00 pm84 °FSandstorm.14 mph20%29.92 "Hg2 mi
3:00 pm84 °FSandstorm.14 mph16%29.92 "Hg2 mi
2:30 pm82 °FSandstorm.13 mph14%29.95 "Hg2 mi
2:00 pm82 °FSandstorm.13 mph14%29.95 "Hg2 mi
1:30 pm82 °FSandstorm.15 mph14%29.98 "Hg2 mi
1:00 pm79 °FPleasantly warm.13 mph15%29.98 "Hg4 mi
12:30 pm77 °FSunny.15 mph13%30.01 "Hg10 mi
12:00 pm77 °FSunny.17 mph13%30.01 "Hg10 mi
Weather by CustomWeather, © 2019

See weather overview